Rockland, ME

11:42 PM EST on November 19, 2017 (GMT -0500)
Knox County Regional

Weather History for KRKD - November, 2010

Change the Weather History Date:

Wednesday, November 24, 2010

  Actual Average Record
Temperature  
Mean Temperature 36 °F -  
Max Temperature 42 °F 41 °F 57 °F (2014)
Min Temperature 30 °F 29 °F 12 °F (2008)
Degree Days  
Heating Degree Days 29    
Moisture  
Dew Point 20 °F    
Average Humidity 53    
Maximum Humidity 93    
Minimum Humidity 38    
Precipitation  
Precipitation 0.01 in - - ()
Sea Level Pressure  
Sea Level Pressure 29.78 in    
Wind  
Wind Speed 14 mph (WNW)    
Max Wind Speed 23 mph    
Max Gust Speed 39 mph    
Visibility 10 miles    
Events      
Averages and records for this station are not official NWS values.
T = Trace of Precipitation, MM = Missing Value Source: NWS Daily Summary

Daily Weather History Graph

Daily Weather History Graph

Search for Another Location

Airport or City:

Trip Planner

Search our weather history database for the weather conditions in past years. The results will help you decide how hot, cold, wet, or windy it might be!

Date:

Astronomy

Nov. 24, 2010 Rise Set
Actual Time 6:42 AM EST 4:02 PM EST
Civil Twilight 6:11 AM EST 4:34 PM EST
Nautical Twilight 5:35 AM EST 5:10 PM EST
Astronomical Twilight 5:00 AM EST 5:44 PM EST
Moon 6:44 PM EST (11/24) 9:30 AM EST (11/24)
Length of Visible Light 10h 23m
Length of Day
9h 19m
Waning Gibbous, 90% of the Moon is Illuminated
Nov 24
Waning Gibbous
Nov 28
Last Quarter
Dec 5
New
Dec 13
First Quarter
Dec 21
Full

Hourly Weather History & Observations

Time (EST) Temp. Windchill Dew Point Humidity Pressure Visibility Wind Dir Wind Speed Gust Speed Precip Events Conditions
12:15 AM 39.2 °F 32.0 °F 37.4 °F 93% 29.65 in 10.0 mi WNW 11.5 mph - N/A   Partly Cloudy
12:35 AM 39.2 °F 32.5 °F 37.4 °F 93% 29.65 in 10.0 mi West 10.4 mph - N/A   Clear
12:55 AM 41.0 °F 36.4 °F 37.4 °F 87% 29.66 in 10.0 mi WNW 6.9 mph - N/A   Clear
1:15 AM 39.2 °F 34.2 °F 35.6 °F 87% 29.66 in 10.0 mi West 6.9 mph - N/A   Clear
1:35 AM 39.2 °F 34.2 °F 35.6 °F 87% 29.66 in 10.0 mi NW 6.9 mph - N/A   Clear
1:55 AM 39.2 °F 30.5 °F 35.6 °F 87% 29.67 in 10.0 mi WNW 16.1 mph - N/A   Clear
2:15 AM 42.8 °F 35.4 °F 35.6 °F 76% 29.68 in 10.0 mi WNW 15.0 mph 25.3 mph N/A   Clear
2:35 AM 41.0 °F 32.2 °F 30.2 °F 65% 29.67 in 10.0 mi WNW 18.4 mph 31.1 mph N/A   Clear
3:15 AM 41.0 °F 31.6 °F 28.4 °F 61% 29.68 in 10.0 mi WNW 20.7 mph 26.5 mph N/A   Clear
3:35 AM 39.2 °F 29.8 °F 28.4 °F 65% 29.69 in 10.0 mi West 18.4 mph 27.6 mph N/A   Clear
3:55 AM 39.2 °F 30.5 °F 26.6 °F 61% 29.69 in 10.0 mi WNW 16.1 mph 27.6 mph N/A   Clear
4:15 AM 39.2 °F 29.3 °F 26.6 °F 61% 29.69 in 10.0 mi West 20.7 mph 28.8 mph N/A   Clear
4:35 AM 39.2 °F 30.8 °F 26.6 °F 61% 29.70 in 10.0 mi West 15.0 mph 20.7 mph N/A   Clear
4:55 AM 37.4 °F 29.8 °F 26.6 °F 65% 29.71 in 10.0 mi West 11.5 mph - N/A   Clear
5:15 AM 39.2 °F 32.5 °F 24.8 °F 56% 29.72 in 10.0 mi WNW 10.4 mph - N/A   Scattered Clouds
5:35 AM 39.2 °F 34.2 °F 24.8 °F 56% 29.73 in 10.0 mi WNW 6.9 mph - N/A   Partly Cloudy
5:55 AM 37.4 °F 30.8 °F 26.6 °F 65% 29.73 in 10.0 mi WNW 9.2 mph - N/A   Clear
6:15 AM 37.4 °F 28.5 °F 24.8 °F 60% 29.73 in 10.0 mi WNW 15.0 mph 18.4 mph N/A   Scattered Clouds
6:35 AM 39.2 °F 29.6 °F 21.2 °F 49% 29.74 in 10.0 mi West 19.6 mph 25.3 mph N/A   Mostly Cloudy
6:55 AM 37.4 °F 29.8 °F 21.2 °F 52% 29.75 in 10.0 mi WNW 11.5 mph 21.9 mph N/A   Mostly Cloudy
7:15 AM 37.4 °F 27.5 °F 21.2 °F 52% 29.74 in 10.0 mi WNW 18.4 mph 24.2 mph N/A   Partly Cloudy
7:35 AM 37.4 °F 27.8 °F 21.2 °F 52% 29.75 in 10.0 mi WNW 17.3 mph 25.3 mph N/A   Clear
7:55 AM 37.4 °F 26.9 °F 21.2 °F 52% 29.75 in 10.0 mi WNW 20.7 mph 29.9 mph N/A   Clear
8:15 AM 39.2 °F 31.2 °F 21.2 °F 49% 29.77 in 10.0 mi NW 13.8 mph 26.5 mph N/A   Partly Cloudy
8:35 AM 37.4 °F 28.5 °F 21.2 °F 52% 29.77 in 10.0 mi WNW 15.0 mph 32.2 mph N/A   Mostly Cloudy
8:55 AM 37.4 °F 28.9 °F 21.2 °F 52% 29.79 in 10.0 mi WNW 13.8 mph 26.5 mph N/A   Mostly Cloudy
9:55 AM 39.2 °F 31.6 °F 19.4 °F 45% 29.80 in 10.0 mi WNW 12.7 mph 21.9 mph N/A   Scattered Clouds
10:15 AM 39.2 °F 30.5 °F 19.4 °F 45% 29.80 in 10.0 mi NW 16.1 mph 31.1 mph N/A   Mostly Cloudy
10:35 AM 39.2 °F 31.2 °F 17.6 °F 42% 29.79 in 10.0 mi NW 13.8 mph 33.4 mph N/A   Partly Cloudy
10:55 AM 39.2 °F 31.2 °F 19.4 °F 45% 29.79 in 10.0 mi WNW 13.8 mph 25.3 mph N/A   Mostly Cloudy
11:15 AM 39.2 °F 28.7 °F 17.6 °F 42% 29.78 in 10.0 mi WNW 23.0 mph 39.1 mph N/A   Mostly Cloudy
11:35 AM 39.2 °F 31.2 °F 17.6 °F 42% 29.79 in 10.0 mi WNW 13.8 mph 28.8 mph N/A   Scattered Clouds
11:55 AM 37.4 °F 27.2 °F 15.8 °F 41% 29.78 in 10.0 mi WNW 19.6 mph 36.8 mph N/A   Mostly Cloudy
12:15 PM 37.4 °F 27.5 °F 17.6 °F 45% 29.78 in 10.0 mi NW 18.4 mph 31.1 mph N/A   Overcast
12:35 PM 37.4 °F 29.3 °F 15.8 °F 41% 29.78 in 10.0 mi WNW 12.7 mph 29.9 mph N/A   Overcast
12:55 PM 37.4 °F 27.2 °F 17.6 °F 45% 29.78 in 10.0 mi WNW 19.6 mph 26.5 mph N/A   Overcast
1:15 PM 37.4 °F 28.9 °F 17.6 °F 45% 29.77 in 10.0 mi NW 13.8 mph 20.7 mph N/A   Mostly Cloudy
1:35 PM 37.4 °F 27.8 °F 15.8 °F 41% 29.78 in 10.0 mi WNW 17.3 mph 25.3 mph N/A   Overcast
1:55 PM 37.4 °F 27.8 °F 15.8 °F 41% 29.78 in 10.0 mi WNW 17.3 mph 35.7 mph N/A   Overcast
2:15 PM 37.4 °F 29.3 °F 14.0 °F 38% 29.79 in 10.0 mi NNW 12.7 mph 28.8 mph N/A   Mostly Cloudy
2:35 PM 35.6 °F 25.2 °F 14.0 °F 41% 29.80 in 10.0 mi NW 18.4 mph 33.4 mph N/A   Scattered Clouds
2:55 PM 35.6 °F 25.9 °F 14.0 °F 41% 29.80 in 10.0 mi WNW 16.1 mph 27.6 mph N/A   Mostly Cloudy
3:15 PM 35.6 °F 24.8 °F 14.0 °F 41% 29.80 in 10.0 mi NW 19.6 mph 31.1 mph N/A   Scattered Clouds
3:35 PM 35.6 °F 25.2 °F 14.0 °F 41% 29.81 in 10.0 mi NW 18.4 mph 36.8 mph N/A   Clear
3:55 PM 33.8 °F 24.3 °F 14.0 °F 44% 29.82 in 10.0 mi NW 13.8 mph 25.3 mph N/A   Partly Cloudy
4:15 PM 33.8 °F 24.8 °F 14.0 °F 44% 29.84 in 10.0 mi NW 12.7 mph 28.8 mph N/A   Partly Cloudy
4:35 PM 33.8 °F 23.9 °F 15.8 °F 48% 29.85 in 10.0 mi NW 15.0 mph 25.3 mph N/A   Mostly Cloudy
4:55 PM 33.8 °F 25.8 °F 15.8 °F 48% 29.86 in 10.0 mi WNW 10.4 mph 23.0 mph N/A   Mostly Cloudy
5:15 PM 33.8 °F 25.3 °F 15.8 °F 48% 29.86 in 10.0 mi NW 11.5 mph 31.1 mph N/A   Scattered Clouds
5:35 PM 33.8 °F 22.8 °F 15.8 °F 48% 29.87 in 10.0 mi NW 18.4 mph 32.2 mph N/A   Clear
5:55 PM 33.8 °F 24.3 °F 15.8 °F 48% 29.87 in 10.0 mi NW 13.8 mph 31.1 mph N/A   Clear
6:15 PM 33.8 °F 22.5 °F 15.8 °F 48% 29.87 in 10.0 mi NW 19.6 mph 35.7 mph N/A   Clear
6:35 PM 33.8 °F 23.5 °F 14.0 °F 44% 29.88 in 10.0 mi NW 16.1 mph 31.1 mph N/A   Clear
6:55 PM 33.8 °F 22.2 °F 14.0 °F 44% 29.89 in 10.0 mi NW 20.7 mph 33.4 mph N/A   Clear
7:15 PM 32.0 °F 20.8 °F 14.0 °F 48% 29.90 in 10.0 mi NW 17.3 mph 29.9 mph N/A   Clear
7:35 PM 32.0 °F 23.0 °F 14.0 °F 48% 29.91 in 10.0 mi NW 11.5 mph 28.8 mph N/A   Clear
7:55 PM 32.0 °F 28.7 °F 14.0 °F 48% 29.92 in 10.0 mi WNW 3.5 mph 19.6 mph N/A   Clear
8:15 PM 32.0 °F 27.5 °F 12.2 °F 44% 29.93 in 10.0 mi NW 4.6 mph 26.5 mph N/A   Clear
8:35 PM 30.2 °F 20.8 °F 12.2 °F 47% 29.93 in 10.0 mi NW 11.5 mph 26.5 mph N/A   Clear
8:55 PM 30.2 °F 19.8 °F 12.2 °F 47% 29.93 in 10.0 mi NW 13.8 mph 24.2 mph N/A   Clear
9:15 PM 30.2 °F 19.3 °F 12.2 °F 47% 29.94 in 10.0 mi NW 15.0 mph 28.8 mph N/A   Clear
9:35 PM 30.2 °F 18.9 °F 12.2 °F 47% 29.94 in 10.0 mi WNW 16.1 mph 21.9 mph N/A   Clear
9:55 PM 30.2 °F 19.8 °F 12.2 °F 47% 29.94 in 10.0 mi NW 13.8 mph 24.2 mph N/A   Clear
10:15 PM 30.2 °F 20.2 °F 12.2 °F 47% 29.96 in 10.0 mi NW 12.7 mph 21.9 mph N/A   Clear
10:35 PM 30.2 °F 22.6 °F 12.2 °F 47% 29.97 in 10.0 mi NW 8.1 mph 19.6 mph N/A   Clear
10:55 PM 30.2 °F 24.3 °F 12.2 °F 47% 29.97 in 10.0 mi NNW 5.8 mph 18.4 mph N/A   Clear
11:15 PM 30.2 °F 21.3 °F 12.2 °F 47% 29.97 in 10.0 mi NW 10.4 mph 18.4 mph N/A   Clear
11:35 PM 30.2 °F 22.6 °F 10.4 °F 44% 29.97 in 10.0 mi NW 8.1 mph - N/A   Clear
11:55 PM 30.2 °F 21.3 °F 10.4 °F 44% 29.97 in 10.0 mi NW 10.4 mph 18.4 mph N/A   Clear